sat.trackr.live / text

‹ back to catalog

STARLINK-32550

NORAD 62131 · 2024-222T

PAYLOAD ACTIVE UNKNOWN

§ Identity

Operator
Country
US
Launch date
2024-11-27
Launch site
AFETR
Launch vehicle
Mass (kg)
RCS (m²)

Purposes: comms

External: N2YO · Heavens-Above · Gunter

§ Orbital elements

Epoch: 2026-09-20T23:35:08.262528Z

Period
94.27 min
Inclination
43.0038°
Eccentricity
0.0001312
Mean motion
15.27588433 rev/d
Perigee alt
482.1 km
Apogee alt
483.9 km
Semi-major
6,861.2 km
B*
4.2133e-4
RAAN
113.5140°
Arg perigee
284.3008°
Mean anomaly
75.7698°
Rev number
10,266

§ Raw data

STARLINK-325501 62131U 24222T   26263.98273452  .00011353  00000+0  42133-3 0  99922 62131  43.0038 113.5140 0001312 284.3008  75.7698 15.27588433102663

JSON: /api/v1/satellites/62131 · /tle

For live sub-satellite position, see the globe view (requires WebGL).

§ Visibility from observer

Set your observer location to see the next 7 days of passes ≥ 10°. The values pass through the URL so the page stays shareable.

No JS? Fill the form by hand. The geolocation button needs JavaScript.